N-1 R/B

基本信息
目录编号:
8352
目录名称:
N-1 R/B
国际标识:
1975-082B
轨道中心:
EARTH
物体状态:
在轨
发射日期:
1975-09-09 UTC
国别:
日本 (JP)
轨道信息
数据来源: 国际轨道数据
星历时间: 2026-07-13T08:19:35+0800
半长轴: 7409.783km
偏心率: 0.0085045
轨道倾角: 46.989°
近地点辐角: 287.779°
升交点赤经: 28.125°
平近点角: 236.289°
近地点: 968.629km
远地点: 1094.663km
周期: 105.796分钟
每日圈数: 13.611143
详细信息
发射场:
TNSTA
轨道高度:
LEO
数据来源:
AOE Integration Group
参考系:
TEME
时间系统:
UTC
历元类型:
SGP4
2D轨道图
3D轨道图
轨道高度分析图
轨道倾角分析图
轨道综合分析图
查看轨道综合分析图